Location: Cheching
(60.0667°N, 164.2167°W)
Time: 13:28:41
(UTC+00:00)

STRAND 1 - Pass Details

Date: 17 January 2021
Orbit: 768 x 780 km, 98.4° (Epoch: 04 March)

Event Time Altitude Azimuth Distance (km) Brightness Sun altitude
Rises 16:23:05 0° 146° (SE) 3,237 ? -23.2°
Reaches altitude 10° 16:25:25 10° 142° (SE) 2,315 ? -22.9°
Maximum altitude 16:30:25 59° 64° (ENE) 893 ? -22.3°
Drops below altitude 10° 16:35:28 10° 346° (NNW) 2,336 ? -21.7°
Enters shadow 16:36:04 - 345° (NNW) 2,570 ? -21.6°
